Regional Weather Roundup
Issued by NWS

Home | Current Version | Previous Version | Text Only | Print | Product List | Glossary Off
Versions: 1 2 3 4 5 6 7 8 9 10 11 12 13 14 15 16 17 18 19 20 21 22 23 24 25 26 27 28 29 30 31 32 33 34 35 36 37 38 39 40 41 42 43 44 45 46 47 48 49 50

000
ASUS45 KPSR 301810
RWRAZ

ARIZONA HOURLY REGIONAL WEATHER ROUNDUP
NATIONAL WEATHER SERVICE PHOENIX AZ
1100 AM MST THU JUL 30 2015

NOTE: FAIR INDICATES FEW OR NO CLOUDS BELOW 12,000 FEET WITH NO
SIGNIFICANT WEATHER AND/OR OBSTRUCTIONS TO VISIBILITY.

AZZ001>003-036-301900-
NORTHWEST ARIZONA

CITY           SKY/WX    TMP DP  RH WIND       PRES   REMARKS
BULLHEAD CITY  PTSUNNY   99  59  26 W5        29.98S
KINGMAN        PTSUNNY   89  53  29 W7        30.18S
6HR MIN TEMP:  76; 6HR MAX TEMP:  89;

$$

AZZ004>008-015-016-018-301900-
NORTH CENTRAL ARIZONA

CITY           SKY/WX    TMP DP  RH WIND       PRES   REMARKS
GRAND CANYON   PTSUNNY   76  50  40 E8        30.43R
6HR MIN TEMP:  51; 6HR MAX TEMP:  76;

WILLIAMS       CLOUDY    75  50  41 NE6G14    30.48S
PRESCOTT       LGT RAIN  75  56  51 E8        30.32R
6HR MIN TEMP:  66; 6HR MAX TEMP:  77; 6HR PCP: TRACE;

FLAGSTAFF      CLOUDY    65  55  70 E9        30.46R
6HR MIN TEMP:  51; 6HR MAX TEMP:  65;

PAYSON         PTSUNNY   77  57  50 S6        30.33S
PAGE           MOSUNNY   86  54  33 VRB5      30.26S
6HR MIN TEMP:  71; 6HR MAX TEMP:  86;

$$

AZZ009>014-017-301900-
NORTHEAST ARIZONA

CITY           SKY/WX    TMP DP  RH WIND       PRES   REMARKS
WINSLOW        CLOUDY    73  60  63 CALM      30.34R
6HR MIN TEMP:  66; 6HR MAX TEMP:  73; 6HR PCP: TRACE;

SAINT JOHNS    CLOUDY    74  58  57 VRB5      30.36S
6HR MIN TEMP:  62; 6HR MAX TEMP:  74; 6HR PCP: TRACE;

SHOW LOW       PTSUNNY   68  57  68 N6        30.42S
$$

AZZ023-301900-
GREATER PHOENIX AREA

CITY           SKY/WX    TMP DP  RH WIND       PRES   REMARKS
PHOENIX        MOSUNNY   95  61  32 VRB7      30.01F
6HR MIN TEMP:  85; 6HR MAX TEMP:  96;

GLENDALE       PTSUNNY   97  61  30 E7        30.02F
DEER VALLEY    MOSUNNY   94  59  31 CALM      30.03F
6HR MIN TEMP:  82; 6HR MAX TEMP:  95;

SCOTTSDALE     SUNNY     95  59  30 E7        30.05F
6HR MIN TEMP:  83; 6HR MAX TEMP:  95;

MESA-GATEWAY   MOSUNNY   93  61  33 VRB3      30.05S
CHANDLER       PTSUNNY   95  61  31 E8        30.03S
$$

AZZ027-028-301900-
SOUTHWEST MARICOPA COUNTY AND PINAL COUNTY

CITY           SKY/WX    TMP DP  RH WIND       PRES   REMARKS
CASA GRANDE    SUNNY     93  61  33 CALM      30.03F
6HR MIN TEMP:  81; 6HR MAX TEMP:  93;

$$

AZZ503-504-507>509-301900-
SOUTHEAST ARIZONA

CITY           SKY/WX    TMP DP  RH WIND       PRES   REMARKS
TUCSON         SUNNY     90  61  37 VRB3      30.14S
6HR MIN TEMP:  74; 6HR MAX TEMP:  90;

DAVIS-MONTHAN  SUNNY     89  61  39 E6        30.12F
6HR MIN TEMP:  72; 6HR MAX TEMP:  89;

RYAN FIELD     SUNNY     91  63  38 E7        30.12S
NOGALES        SUNNY     86  60  41 CALM      30.21S
6HR MIN TEMP:  65; 6HR MAX TEMP:  86;

DOUGLAS          N/A    N/A N/A N/A MISG      30.23F
SAFFORD        MOSUNNY   85  61  44 SE8       30.19F
6HR MIN TEMP:  71; 6HR MAX TEMP:  86;

$$

AZZ020-021-025-026-031-301900-
SOUTHWEST ARIZONA

CITY           SKY/WX    TMP DP  RH WIND       PRES   REMARKS
YUMA           MOSUNNY  100  64  30 VRB5      29.94S HX 102
6HR MIN TEMP:  86; 6HR MAX TEMP: 101;

$$

CAZ031-033-041-043-047-048-061-301900-
SOUTHERN CALIFORNIA

CITY           SKY/WX    TMP DP  RH WIND       PRES   REMARKS
DOWNTOWN L.A.  PTSUNNY   75  64  68 CALM      30.01R
6HR MIN TEMP:  68; 6HR MAX TEMP:  75;

L.A. AIRPORT   PTSUNNY   72  65  78 W9        30.02S
6HR MIN TEMP:  67; 6HR MAX TEMP:  72;

SAN DIEGO      MOSUNNY   78  65  63 W8        30.02S
6HR MIN TEMP:  71; 6HR MAX TEMP:  79;

BURBANK        PTSUNNY   78  64  61 SE6       30.02R
6HR MIN TEMP:  71; 6HR MAX TEMP:  78; 6HR PCP: TRACE;

ONTARIO        MOSUNNY   85  64  49 W8        30.02R
6HR MIN TEMP:  71; 6HR MAX TEMP:  85;

RIVERSIDE      MOSUNNY   87  65  47 VRB6      30.00F
6HR MIN TEMP:  72; 6HR MAX TEMP:  87;

PALM SPRINGS   MOSUNNY  100  66  32 NE6       29.97F HX 104
6HR MIN TEMP:  89; 6HR MAX TEMP: 101;

EL CENTRO NAS  MOSUNNY  100  67  33 VRB6      29.93S HX 105
6HR MIN TEMP:  80; 6HR MAX TEMP: 100;

IMPERIAL       SUNNY    101  67  32 E9        29.91S HX 106
6HR MIN TEMP:  83; 6HR MAX TEMP: 101;

BLYTHE         SUNNY    101  65  30 S7        29.94F HX 104
6HR MIN TEMP:  88; 6HR MAX TEMP: 101;

NEEDLES        MOSUNNY  103  56  21 CALM      29.98S HX 102
6HR MIN TEMP:  92; 6HR MAX TEMP: 103;

$$

NVZ020-UTZ003-301900-
SOUTHERN NEVADA-UTAH

CITY           SKY/WX    TMP DP  RH WIND       PRES   REMARKS
LAS VEGAS      PTSUNNY   99  48  17 N9        30.04S
6HR MIN TEMP:  87; 6HR MAX TEMP:  99;

SALT LAKE CITY MOSUNNY   82  34  17 N12       30.30S
6HR MIN TEMP:  58; 6HR MAX TEMP:  82;

$$

NMZ009-TXZ055-301900-
NEW MEXICO-WEST TEXAS

CITY           SKY/WX    TMP DP  RH WIND       PRES   REMARKS
ALBUQUERQUE    PTSUNNY   75  59  57 VRB7      30.39S
6HR MIN TEMP:  65; 6HR MAX TEMP:  76; 6HR PCP:  0.01;

EL PASO        MOSUNNY   78  64  61 N12       30.25F
6HR MIN TEMP:  68; 6HR MAX TEMP:  78; 6HR PCP:  0.04;

$$


........................KEY........................
SKY/WX - SKY CONDITION/WEATHER
TMP    - TEMPERATURE IN FAHRENHEIT
DP     - DEW POINT IN FAHRENHEIT
RH     - RELATIVE HUMIDITY IN PERCENT
WIND   - DIRECTION AND SPEED IN MILES PER HOUR (MPH)
VRB    - VARIABLE WIND DIRECTION
PRES   - MEAN SEA LEVEL PRESSURE IN INCHES OF MERCURY
         F - FALLING PRESSURE   R - RISING PRESSURE
         S - STEADY PRESSURE
VSB    - VISIBILITY IN MILES
HX     - HEAT INDEX IN FAHRENHEIT
WCI    - WIND CHILL INDEX IN FAHRENHEIT
TC     - TEMPERATURE IN CELSIUS WHICH IS ALSO KNOWN AS
         TEMPERATURE IN CENTIGRADE
AFB    - AIR FORCE BASE
         LUKE AFB IS LUKE AIR FORCE BASE
         DAVIS-MONTHAN IS DAVIS-MONTHAN AIR FORCE BASE
NAS    - NAVAL AIR STATION
         EL CENTRO NAS IS EL CENTRO NAVAL AIR STATION
N/A    - NOT AVAILABLE



USA.gov is the U.S. government's official web portal to all federal, state and local government web resources and services.